This is the latest recevied weather packets stored in our database for station/object SV9TNF-2. If no packets are shown the sender has not sent any weather packets the latest 10 day(s).
| Time | Temp. | Humidity | Pressure | Rain* | Wind** | Luminosity | Snow |
|---|---|---|---|---|---|---|---|
| 1777845306 | 15° C | 58% | 1024.4 hPa | 0 mm | 29.5 m/s, 62° | - | - |
| 1777845006 | 15° C | 56% | 1024.4 hPa | 0 mm | 19.67 m/s, 10° | - | - |
| 1777844706 | 15° C | 59% | 1024.4 hPa | 0 mm | 21.46 m/s, 17° | - | - |
| 1777844406 | 15° C | 60% | 1024.4 hPa | 0 mm | 10.73 m/s, 10° | - | - |
| 1777844106 | 15° C | 59% | 1024.4 hPa | 0 mm | 23.69 m/s, 53° | - | - |
| 1777843806 | 15° C | 60% | 1024.4 hPa | 0 mm | 23.69 m/s, 334° | - | - |
| 1777843506 | 15° C | 57% | 1024.4 hPa | 0 mm | 30.85 m/s, 0° | - | - |
| 1777843206 | 15° C | 57% | 1023.7 hPa | 0 mm | 32.19 m/s, 15° | - | - |
| 1777842906 | 15° C | 61% | 1023.7 hPa | 0 mm | 10.28 m/s, 52° | - | - |
| 1777842605 | 15° C | 59% | 1023.7 hPa | 0 mm | 27.27 m/s, 86° | - | - |
| 1777842306 | 15° C | 59% | 1023.7 hPa | 0 mm | 28.16 m/s, 162° | - | - |
| 1777842011 | 15° C | 58% | 1023.7 hPa | 0 mm | 23.25 m/s, 356° | - | - |
| 1777841705 | 15° C | 58% | 1023.7 hPa | 0 mm | 27.27 m/s, 51° | - | - |
| 1777841405 | 15° C | 60% | 1023.7 hPa | 0 mm | 29.06 m/s, 21° | - | - |
| 1777841105 | 15° C | 58% | 1023.7 hPa | 0 mm | 21.46 m/s, 17° | - | - |
| 1777840805 | 15° C | 61% | 1023.7 hPa | 0 mm | 18.78 m/s, 299° | - | - |
| 1777840505 | 15° C | 60% | 1023.7 hPa | 0 mm | 23.69 m/s, 343° | - | - |
| 1777840205 | 15° C | 59% | 1023.7 hPa | 0 mm | 20.12 m/s, 16° | - | - |
| 1777839904 | 14.44° C | 56% | 1023.7 hPa | 0 mm | 15.2 m/s, 358° | - | - |
| 1777839605 | 14.44° C | 60% | 1023.7 hPa | 0 mm | 15.65 m/s, 47° | - | - |
| 1777839304 | 14.44° C | 65% | 1023.7 hPa | 0 mm | 8.05 m/s, 84° | - | - |
| 1777839004 | 14.44° C | 63% | 1023.7 hPa | 0 mm | 8.94 m/s, 83° | - | - |
| 1777838704 | 14.44° C | 62% | 1023.7 hPa | 0 mm | 8.49 m/s, 40° | - | - |
| 1777838405 | 14.44° C | 62% | 1023.7 hPa | 0 mm | 15.2 m/s, 288° | - | - |
| 1777838104 | 14.44° C | 58% | 1023.7 hPa | 0 mm | 21.01 m/s, 355° | - | - |
* Rain latest hour (hover to see other rain measurements)
** Current wind speed in m/s (hover to see current wind gust speed)